Regional Weather Roundup
Issued by NWS State College, PA

Home | Current Version | Previous Version | Text Only | Print | Product List | Glossary Off
Versions: 1 2 3 4 5 6 7 8 9 10 11 12 13 14 15 16 17 18 19 20 21 22 23 24 25 26 27 28 29 30 31 32 33 34 35 36 37 38 39 40 41 42 43 44 45 46 47

000
ASUS41 KCTP 191803
RWRCTP

REGIONAL WEATHER ROUNDUP
NATIONAL WEATHER SERVICE STATE COLLEGE PA
100 PM EST MON FEB 19 2018

Note: "fair" indicates few or no clouds below 12,000 feet with no
significant weather and/or obstructions to visibility.

* = STATION THAT DOES NOT REPORT PRECIPITATION /E.G. RAIN...SNOW...ETC/
    THUNDER OR FOG.

PAZ002>004-007>009-013>016-020>023-029>032-191900-
WESTERN PENNSYLVANIA

CITY           SKY/WX    TMP DP  RH WIND       PRES   REMARKS
ERIE           RAIN      50  46  86 S14       30.08S FOG
MEADVILLE      RAIN      46  46 100 VRB7      30.10F FOG
FRANKLIN*      RAIN      43  43 100 S10       30.12
NEW CASTLE     RAIN      47  47 100 S3        30.12F FOG
BEAVER COUNTY  RAIN      46  46 100 S6        30.15R
BUTLER*        RAIN      48  47  96 SE6       30.14F FOG
PITTSBURGH INT LGT RAIN  51  51 100 VRB3      30.13F
PITTSBURGH     CLOUDY    52  49  89 S8        30.14F
INDIANA*       FOG       46  46 100 VRB6      30.21F VSB 1
LATROBE        CLOUDY    55  54  94 SW12      30.17F
WASHINGTON CO* CLOUDY    60  54  80 SW14G20   30.16F
$$

PAZ004>006-010>012-017>019-024>028-033>037-041-042-045-046-049>053-191900-
CENTRAL PENNSYLVANIA

CITY           SKY/WX    TMP DP  RH WIND       PRES   REMARKS
BRADFORD       CLOUDY    41  40  96 S6        30.13R
DUBOIS         LGT RAIN  40  38  93 SE9       30.15F FOG
CLEARFIELD     LGT RAIN  37  36  96 N3        30.22F VSB 1/4
JOHNSTOWN      LGT RAIN  40  38  93 S10       30.20F
ALTOONA        LGT RAIN  38  37  97 CALM      30.27S FOG
STATE COLLEGE  RAIN      37  36  93 S7        30.28F
WILLIAMSPORT   CLOUDY    40  34  79 NE9G16    30.32S
SELINSGROVE    LGT RAIN  41  34  76 S7        30.33F
FT INDIANTOWN  CLOUDY    40  40  99 SE7       30.36F
CAPITAL CITY   CLOUDY    46  37  71 SE9       30.35F
HARRISBURG     CLOUDY    43  35  73 SE7       30.36F
YORK           CLOUDY    43  39  86 VRB5      30.36F
$$

PAZ038>040-043-044-047-048-054-055-060>062-067>071-191900-
EASTERN PENNSYLVANIA

CITY           SKY/WX    TMP DP  RH WIND       PRES   REMARKS
SCRANTON       CLOUDY    39  32  76 S8G17     30.32F
MOUNT POCONO   NOT AVBL
ALLENTOWN      CLOUDY    41  33  73 S9        30.41F
QUAKERTOWN*    CLOUDY    41  37  87 S7        30.40F FOG
READING        CLOUDY    40  37  89 S9        30.38F
LANCASTER      CLOUDY    41  39  93 S7        30.38F
COATESVILLE    CLOUDY    39 N/A N/A S5        30.40F
POTTSTOWN      CLOUDY    40  36  86 S6        30.42F FOG
BLUE BELL      CLOUDY    43  37  81 SW5       30.43F
DOYLESTOWN     CLOUDY    45  33  63 S7        30.41F
WILLOW GROVE   NOT AVBL
NORTH PHILA    CLOUDY    51  37  58 SW9       30.44F
PHILADELPHIA   LGT RAIN  46  39  76 S10       30.44F
$$




USA.gov is the U.S. government's official web portal to all federal, state and local government web resources and services.